DAL2340 ZGGG-KJFK

Flight info

Callsign DAL2340
Flight time N/A
Altitude 33100
Route BOVMA9 BOVMA W41 OMDUP G471 PLT A599 LURMA/K0911S1070 A599 JTN G327 LAMEN/N0488F350 A593 SADLI Y590 BEDAR Y591 FUE Y23 KASTE Y81 TASOT Y57 POROT OTR11 AVBET OTR9 EMRON DCT 43N160E/N0486F370 47N170E 50N180E DCT RIZON DCT 55N160W/N0489F390 56N150W 57N140W DCT BKA DCT LVD DCT YQU DCT YZU/N0479F410 DCT 54N115W 53N110W DCT XOVON DCT GABOV DCT GERTY DCT AGLIN DCT SSM DCT BUF DCT SFK DCT FQM DCT WLKES PUCKY1
Aircraft A359/H-SDE2E3GHIJ3J4J5LM1ORWXY/LB1D1

Departure

Time N/A
Airport Guangzhou Baiyun International Airport (ZGGG)

Arrival

Time 2026-05-09 17:44
Airport John F. Kennedy International Airport (KJFK)
Time Latitude Longitude Altitude Speed Heading
2026-05-09 12:56 56.20204 -128.10450 34927 ft 473 kts 104°
2026-05-09 12:57 56.19766 -128.04519 35010 ft 473 kts 104°
2026-05-09 12:57 56.19331 -127.98710 35126 ft 478 kts 104°
2026-05-09 12:57 56.18882 -127.92773 35285 ft 483 kts 104°
2026-05-09 12:57 56.18425 -127.86770 35418 ft 488 kts 104°
2026-05-09 12:58 56.17964 -127.80711 35547 ft 492 kts 104°
2026-05-09 12:58 56.17497 -127.74608 35709 ft 496 kts 104°
2026-05-09 12:58 56.17023 -127.68462 35813 ft 500 kts 104°
2026-05-09 12:58 56.16541 -127.62264 35952 ft 503 kts 104°
2026-05-09 12:59 56.16052 -127.56008 36089 ft 507 kts 104°
2026-05-09 12:59 56.15560 -127.49743 36288 ft 509 kts 104°
2026-05-09 12:59 56.15063 -127.43461 36527 ft 510 kts 103°
2026-05-09 12:59 56.14559 -127.37156 36735 ft 510 kts 104°
2026-05-09 13:00 56.14054 -127.30868 36906 ft 511 kts 103°
2026-05-09 13:00 56.13539 -127.24516 36786 ft 520 kts 102°
2026-05-09 13:00 56.13012 -127.18068 36789 ft 525 kts 103°
2026-05-09 13:00 56.12482 -127.11584 37090 ft 524 kts 102°
2026-05-09 13:01 56.11952 -127.05154 37421 ft 522 kts 102°
2026-05-09 13:01 56.11419 -126.98724 37703 ft 521 kts 102°
2026-05-09 13:01 56.10885 -126.92303 37940 ft 521 kts 102°
2026-05-09 13:01 56.10346 -126.85894 38214 ft 520 kts 102°
2026-05-09 13:02 56.09807 -126.79499 38520 ft 517 kts 102°
2026-05-09 13:02 56.09266 -126.73126 38688 ft 519 kts 102°
2026-05-09 13:02 56.08720 -126.66745 38830 ft 519 kts 102°
2026-05-09 13:02 56.08168 -126.60351 38979 ft 519 kts 102°
2026-05-09 13:03 56.07612 -126.53957 39019 ft 520 kts 102°
2026-05-09 13:03 56.06492 -126.41186 39017 ft 518 kts 101°
2026-05-09 13:04 56.05370 -126.28536 39034 ft 512 kts 101°
2026-05-09 13:04 56.04241 -126.15982 39026 ft 511 kts 101°
2026-05-09 13:05 56.03098 -126.03437 39036 ft 511 kts 101°
2026-05-09 13:05 56.01944 -125.90904 39036 ft 511 kts 101°
2026-05-09 13:06 56.00778 -125.78375 39035 ft 511 kts 101°
2026-05-09 13:06 55.99607 -125.65937 39039 ft 510 kts 101°
2026-05-09 13:07 55.98410 -125.53365 39050 ft 511 kts 101°
2026-05-09 13:07 55.97206 -125.40870 39063 ft 511 kts 101°
2026-05-09 13:08 55.95990 -125.28383 39066 ft 510 kts 101°
2026-05-09 13:08 55.94763 -125.15914 39074 ft 510 kts 101°
2026-05-09 13:09 55.93522 -125.03449 39062 ft 510 kts 101°
2026-05-09 13:09 55.92270 -124.91000 39077 ft 509 kts 101°
2026-05-09 13:10 55.91010 -124.78601 39070 ft 508 kts 102°
2026-05-09 13:10 55.89749 -124.66331 39072 ft 506 kts 102°
2026-05-09 13:11 55.88471 -124.54017 39077 ft 506 kts 102°
2026-05-09 13:11 55.87179 -124.41693 39072 ft 506 kts 102°
2026-05-09 13:12 55.85876 -124.29394 39059 ft 506 kts 102°
2026-05-09 13:12 55.84560 -124.17101 39064 ft 506 kts 102°
2026-05-09 13:13 55.83232 -124.04809 39062 ft 506 kts 102°
2026-05-09 13:13 55.81890 -123.92509 39064 ft 506 kts 102°
2026-05-09 13:14 55.80539 -123.80245 39053 ft 506 kts 102°
2026-05-09 13:16 55.75030 -123.31245 39053 ft 506 kts 103°
2026-05-09 13:16 55.73617 -123.19017 39042 ft 506 kts 103°
2026-05-09 13:17 55.72186 -123.06744 39042 ft 510 kts 103°
2026-05-09 13:17 55.70737 -122.94436 39039 ft 510 kts 103°
2026-05-09 13:18 55.69277 -122.82164 39026 ft 509 kts 103°
2026-05-09 13:18 55.67803 -122.69867 39039 ft 512 kts 103°
2026-05-09 13:19 55.66310 -122.57519 39026 ft 512 kts 104°
2026-05-09 13:19 55.64807 -122.45203 39031 ft 512 kts 104°
2026-05-09 13:20 55.63287 -122.32877 39030 ft 514 kts 103°
2026-05-09 13:20 55.61747 -122.20491 39034 ft 515 kts 103°
2026-05-09 13:21 55.60196 -122.08125 39015 ft 515 kts 103°
2026-05-09 13:21 55.58633 -121.95770 39028 ft 515 kts 103°
2026-05-09 13:22 55.57057 -121.83417 39016 ft 515 kts 103°
2026-05-09 13:22 55.55468 -121.71071 39015 ft 515 kts 104°
2026-05-09 13:23 55.51434 -121.40210 39046 ft 517 kts 103°
2026-05-09 13:24 55.49797 -121.27870 39045 ft 517 kts 103°
2026-05-09 13:24 55.48144 -121.15529 39049 ft 517 kts 104°
2026-05-09 13:25 55.46479 -121.03191 39052 ft 517 kts 104°
2026-05-09 13:26 55.43965 -120.84738 39046 ft 517 kts 103°
2026-05-09 13:26 55.42271 -120.72437 39049 ft 517 kts 103°
2026-05-09 13:27 55.40568 -120.60162 39045 ft 516 kts 103°
2026-05-09 13:27 55.38850 -120.47902 39057 ft 516 kts 104°
2026-05-09 13:28 55.37123 -120.35665 39057 ft 516 kts 104°
2026-05-09 13:28 55.35384 -120.23429 39058 ft 515 kts 104°
2026-05-09 13:29 55.33634 -120.11219 39062 ft 515 kts 104°
2026-05-09 13:29 55.31872 -119.99021 39062 ft 515 kts 104°
2026-05-09 13:30 55.30114 -119.86937 39065 ft 514 kts 104°
2026-05-09 13:30 55.28333 -119.74796 39072 ft 513 kts 104°
2026-05-09 13:31 55.26531 -119.62599 39070 ft 513 kts 104°
2026-05-09 13:31 55.24742 -119.50572 39069 ft 513 kts 104°
2026-05-09 13:32 55.22936 -119.38496 39071 ft 513 kts 104°
2026-05-09 13:32 55.20173 -119.20383 39075 ft 513 kts 105°
2026-05-09 13:33 55.18319 -119.08334 39067 ft 513 kts 105°
2026-05-09 13:33 55.15656 -118.96794 39037 ft 512 kts 116°
2026-05-09 13:34 55.12421 -118.85716 39034 ft 511 kts 118°
2026-05-09 13:34 55.09634 -118.76525 39038 ft 511 kts 118°
2026-05-09 13:35 55.06299 -118.65564 39048 ft 511 kts 118°
2026-05-09 13:35 55.02429 -118.52827 39062 ft 511 kts 118°
2026-05-09 13:36 54.99096 -118.41880 39072 ft 512 kts 118°
2026-05-09 13:36 54.96333 -118.32836 39070 ft 512 kts 118°
2026-05-09 13:37 54.93004 -118.21981 39073 ft 513 kts 118°
2026-05-09 13:37 54.89636 -118.11052 39072 ft 513 kts 118°
2026-05-09 13:38 54.86258 -118.00143 39075 ft 513 kts 118°
2026-05-09 13:38 54.83350 -117.90791 39074 ft 513 kts 118°
2026-05-09 13:39 54.79953 -117.79914 39072 ft 513 kts 119°
2026-05-09 13:39 54.77018 -117.70556 39072 ft 513 kts 119°
2026-05-09 13:40 54.73626 -117.59780 39072 ft 513 kts 119°
2026-05-09 13:40 54.70198 -117.48943 39072 ft 514 kts 119°
2026-05-09 13:41 54.66758 -117.38120 39072 ft 514 kts 119°
2026-05-09 13:41 54.63305 -117.27294 39072 ft 514 kts 119°
2026-05-09 13:42 54.59853 -117.16497 39075 ft 514 kts 119°
2026-05-09 13:42 54.56384 -117.05713 39072 ft 514 kts 119°
2026-05-09 13:43 54.52906 -116.94957 39077 ft 514 kts 119°
2026-05-09 13:43 54.49415 -116.84213 39084 ft 514 kts 119°
2026-05-09 13:44 54.45930 -116.73535 39083 ft 514 kts 119°
2026-05-09 13:44 54.42423 -116.62838 39083 ft 514 kts 119°
2026-05-09 13:45 54.39178 -116.52980 39093 ft 514 kts 119°
2026-05-09 13:45 54.35690 -116.42430 39088 ft 512 kts 119°
2026-05-09 13:46 54.32368 -116.32421 39091 ft 512 kts 119°
2026-05-09 13:46 54.28840 -116.21811 39090 ft 512 kts 119°
2026-05-09 13:47 54.25304 -116.11233 39087 ft 512 kts 119°
2026-05-09 13:47 54.21760 -116.00690 39083 ft 511 kts 120°
2026-05-09 13:48 54.18207 -115.90171 39082 ft 511 kts 120°
2026-05-09 13:48 54.15154 -115.80823 39085 ft 511 kts 114°
2026-05-09 13:49 54.12766 -115.69489 39093 ft 510 kts 107°
2026-05-09 13:49 54.10680 -115.57958 39095 ft 512 kts 105°
2026-05-09 13:50 54.08613 -115.46329 39096 ft 512 kts 106°
2026-05-09 13:50 54.06517 -115.34733 39100 ft 512 kts 106°
2026-05-09 13:51 54.04395 -115.23168 39102 ft 512 kts 106°
2026-05-09 13:51 54.02268 -115.11671 39103 ft 512 kts 107°
2026-05-09 13:52 54.00106 -115.00059 39100 ft 512 kts 107°
2026-05-09 13:52 53.98029 -114.88550 39101 ft 513 kts 105°
2026-05-09 13:53 53.95991 -114.76836 39099 ft 514 kts 105°
2026-05-09 13:53 53.93947 -114.65198 39102 ft 514 kts 105°
2026-05-09 13:54 53.91876 -114.53580 39099 ft 514 kts 105°
2026-05-09 13:54 53.89788 -114.41976 39099 ft 514 kts 106°
2026-05-09 13:55 53.87687 -114.30385 39100 ft 514 kts 106°
2026-05-09 13:55 53.85591 -114.18882 39097 ft 514 kts 106°
2026-05-09 13:56 53.83472 -114.07327 39091 ft 514 kts 106°
2026-05-09 13:56 53.81342 -113.95784 39088 ft 513 kts 106°
2026-05-09 13:57 53.79188 -113.84180 39086 ft 513 kts 106°
2026-05-09 13:57 53.77036 -113.72662 39086 ft 513 kts 106°
2026-05-09 13:58 53.74891 -113.61250 39116 ft 513 kts 106°
2026-05-09 13:58 53.72717 -113.49754 39117 ft 514 kts 106°
2026-05-09 13:59 53.70531 -113.38265 39116 ft 514 kts 107°
2026-05-09 13:59 53.68335 -113.26792 39116 ft 514 kts 107°
2026-05-09 14:00 53.66861 -113.19131 39117 ft 514 kts 107°
2026-05-09 14:00 53.63911 -113.03888 39118 ft 514 kts 107°
2026-05-09 14:01 53.61681 -112.92449 39121 ft 514 kts 107°
2026-05-09 14:01 53.59442 -112.81025 39121 ft 514 kts 107°
2026-05-09 14:02 53.57186 -112.69587 39128 ft 515 kts 107°
2026-05-09 14:02 53.54921 -112.58172 39125 ft 515 kts 107°
2026-05-09 14:03 53.52642 -112.46756 39132 ft 515 kts 107°
2026-05-09 14:03 53.50359 -112.35379 39133 ft 514 kts 107°
2026-05-09 14:04 53.48062 -112.24001 39133 ft 514 kts 107°
2026-05-09 14:04 53.45755 -112.12637 39138 ft 515 kts 107°
2026-05-09 14:05 53.43432 -112.01263 39134 ft 515 kts 107°
2026-05-09 14:05 53.41099 -111.89902 39134 ft 515 kts 107°
2026-05-09 14:06 53.38758 -111.78568 39135 ft 515 kts 107°
2026-05-09 14:06 53.36403 -111.67234 39142 ft 515 kts 108°
2026-05-09 14:07 53.34040 -111.55923 39141 ft 515 kts 108°
2026-05-09 14:07 53.31666 -111.44620 39140 ft 516 kts 107°
2026-05-09 14:08 53.29269 -111.33270 39142 ft 517 kts 107°
2026-05-09 14:08 53.26883 -111.22018 39143 ft 517 kts 107°
2026-05-09 14:09 53.24452 -111.10623 39146 ft 517 kts 108°
2026-05-09 14:09 53.22026 -110.99320 39147 ft 517 kts 108°
2026-05-09 14:10 53.18381 -110.82468 39158 ft 517 kts 107°
2026-05-09 14:11 53.15919 -110.71163 39151 ft 519 kts 108°
2026-05-09 14:11 53.13445 -110.59876 39154 ft 519 kts 108°
2026-05-09 14:12 53.10959 -110.48594 39147 ft 519 kts 108°
2026-05-09 14:12 53.08467 -110.37339 39145 ft 519 kts 108°
2026-05-09 14:13 53.05958 -110.26065 39145 ft 519 kts 108°
2026-05-09 14:15 52.97135 -109.80611 39150 ft 517 kts 101°
2026-05-09 14:15 52.95391 -109.69044 39147 ft 517 kts 101°
2026-05-09 14:16 52.93628 -109.57489 39150 ft 517 kts 101°
2026-05-09 14:16 52.91841 -109.45918 39147 ft 518 kts 101°
2026-05-09 14:17 52.90041 -109.34369 39154 ft 518 kts 101°
2026-05-09 14:17 52.88225 -109.22810 39152 ft 519 kts 101°
2026-05-09 14:18 52.86398 -109.11251 39155 ft 519 kts 101°
2026-05-09 14:18 52.84579 -108.99784 39154 ft 519 kts 101°
2026-05-09 14:19 52.82732 -108.88246 39158 ft 519 kts 101°
2026-05-09 14:19 52.80872 -108.76715 39161 ft 519 kts 101°
2026-05-09 14:20 52.79000 -108.65189 39154 ft 519 kts 101°
2026-05-09 14:20 52.77423 -108.55535 39149 ft 519 kts 101°
2026-05-09 14:21 52.74579 -108.38267 39164 ft 520 kts 101°
2026-05-09 14:21 52.72666 -108.26757 39167 ft 520 kts 101°
2026-05-09 14:22 52.70741 -108.15249 39164 ft 521 kts 101°
2026-05-09 14:22 52.68806 -108.03752 39165 ft 521 kts 101°
2026-05-09 14:23 52.66858 -107.92262 39162 ft 520 kts 101°
2026-05-09 14:23 52.64901 -107.80795 39162 ft 520 kts 101°
2026-05-09 14:24 52.62931 -107.69324 39162 ft 521 kts 101°
2026-05-09 14:24 52.60948 -107.57845 39154 ft 521 kts 101°
2026-05-09 14:25 52.58952 -107.46377 39155 ft 521 kts 101°
2026-05-09 14:25 52.56948 -107.34928 39148 ft 521 kts 101°
2026-05-09 14:26 52.54931 -107.23483 39154 ft 521 kts 101°
2026-05-09 14:26 52.52905 -107.12051 39147 ft 521 kts 101°
2026-05-09 14:27 52.50866 -107.00621 39142 ft 522 kts 101°
2026-05-09 14:27 52.48815 -106.89202 39144 ft 522 kts 101°
2026-05-09 14:28 52.46754 -106.77804 39136 ft 522 kts 101°
2026-05-09 14:28 52.44677 -106.66383 39131 ft 522 kts 102°
2026-05-09 14:29 52.42593 -106.54996 39136 ft 522 kts 101°
2026-05-09 14:29 52.40497 -106.43614 39138 ft 522 kts 102°
2026-05-09 14:30 52.38383 -106.32228 39135 ft 522 kts 102°
2026-05-09 14:30 52.36262 -106.20865 39141 ft 522 kts 102°
2026-05-09 14:31 52.34132 -106.09513 39142 ft 522 kts 102°
2026-05-09 14:31 52.31989 -105.98161 39143 ft 522 kts 102°
2026-05-09 14:32 52.29837 -105.86820 39137 ft 523 kts 102°
2026-05-09 14:32 52.27672 -105.75486 39129 ft 523 kts 102°
2026-05-09 14:33 52.25499 -105.64178 39132 ft 523 kts 102°
2026-05-09 14:33 52.23314 -105.52867 39127 ft 523 kts 102°
2026-05-09 14:34 52.21116 -105.41561 39138 ft 523 kts 102°
2026-05-09 14:34 52.18905 -105.30252 39118 ft 525 kts 102°
2026-05-09 14:35 52.16676 -105.18917 39116 ft 525 kts 102°
2026-05-09 14:35 52.14440 -105.07614 39113 ft 525 kts 102°
2026-05-09 14:36 52.12191 -104.96314 39113 ft 525 kts 102°
2026-05-09 14:36 52.09943 -104.85082 39136 ft 525 kts 103°
2026-05-09 14:37 52.07668 -104.73780 39117 ft 527 kts 103°
2026-05-09 14:37 52.05373 -104.62451 39118 ft 528 kts 103°
2026-05-09 14:38 52.03067 -104.51131 39117 ft 528 kts 103°
2026-05-09 14:38 52.00750 -104.39822 39097 ft 528 kts 103°
2026-05-09 14:39 51.98421 -104.28516 39105 ft 528 kts 103°
2026-05-09 14:39 51.96080 -104.17217 39110 ft 528 kts 103°
2026-05-09 14:40 51.93722 -104.05934 39109 ft 528 kts 103°
2026-05-09 14:40 51.91511 -103.95424 39099 ft 529 kts 104°
2026-05-09 14:41 51.89130 -103.84158 39100 ft 529 kts 104°
2026-05-09 14:41 51.86744 -103.72901 39101 ft 529 kts 104°
2026-05-09 14:42 51.84351 -103.61651 39093 ft 529 kts 104°
2026-05-09 14:42 51.81947 -103.50422 39085 ft 529 kts 104°
2026-05-09 14:43 51.79530 -103.39198 39087 ft 529 kts 104°
2026-05-09 14:43 51.77103 -103.27993 39067 ft 529 kts 104°
2026-05-09 14:44 51.74665 -103.16792 39107 ft 529 kts 104°
2026-05-09 14:44 51.72272 -103.05862 39073 ft 529 kts 104°
2026-05-09 14:45 51.69808 -102.94663 39069 ft 529 kts 104°
2026-05-09 14:45 51.67334 -102.83486 39066 ft 529 kts 105°
2026-05-09 14:46 51.64848 -102.72317 39067 ft 529 kts 105°
2026-05-09 14:46 51.62353 -102.61163 39085 ft 530 kts 105°
2026-05-09 14:47 51.59848 -102.50020 39069 ft 530 kts 105°
2026-05-09 14:47 51.57330 -102.38879 39066 ft 530 kts 105°
2026-05-09 14:48 51.54800 -102.27746 39063 ft 530 kts 105°
2026-05-09 14:48 51.52275 -102.16692 39065 ft 530 kts 105°
2026-05-09 14:49 51.49708 -102.05510 39079 ft 530 kts 105°
2026-05-09 14:49 51.47149 -101.94428 39070 ft 529 kts 105°
2026-05-09 14:50 51.44585 -101.83375 39065 ft 529 kts 106°
2026-05-09 14:50 51.42005 -101.72312 39064 ft 531 kts 106°
2026-05-09 14:51 51.39409 -101.61233 39064 ft 531 kts 106°
2026-05-09 14:51 51.36818 -101.50241 39069 ft 531 kts 106°
2026-05-09 14:52 51.34201 -101.39193 39060 ft 531 kts 106°
2026-05-09 14:52 51.31575 -101.28162 39053 ft 531 kts 106°
2026-05-09 14:53 51.28936 -101.17133 39050 ft 531 kts 106°
2026-05-09 14:53 51.26287 -101.06118 39044 ft 531 kts 107°
2026-05-09 14:54 51.23628 -100.95118 39051 ft 531 kts 107°
2026-05-09 14:54 51.20961 -100.84140 39048 ft 530 kts 107°
2026-05-09 14:55 51.18286 -100.73181 39048 ft 530 kts 107°
2026-05-09 14:55 51.15598 -100.62227 39039 ft 530 kts 107°
2026-05-09 14:56 51.12904 -100.51303 39043 ft 530 kts 107°
2026-05-09 14:56 51.10196 -100.40372 39045 ft 530 kts 107°
2026-05-09 14:57 51.07477 -100.29453 39022 ft 531 kts 107°
2026-05-09 14:57 51.04744 -100.18532 39015 ft 532 kts 107°
2026-05-09 14:58 51.02002 -100.07630 39016 ft 532 kts 108°
2026-05-09 14:58 50.99253 -99.96710 39023 ft 531 kts 107°
2026-05-09 14:59 50.96803 -99.85925 39022 ft 530 kts 104°
2026-05-09 14:59 50.94476 -99.75228 39027 ft 530 kts 104°
2026-05-09 15:00 50.92036 -99.64237 39041 ft 531 kts 105°
2026-05-09 15:00 50.90071 -99.55545 39022 ft 532 kts 105°
2026-05-09 15:01 50.86863 -99.41505 39054 ft 532 kts 105°
2026-05-09 15:02 50.84334 -99.30503 39021 ft 532 kts 105°
2026-05-09 15:02 50.81796 -99.19515 39020 ft 532 kts 105°
2026-05-09 15:03 50.79246 -99.08527 39020 ft 532 kts 105°
2026-05-09 15:03 50.76687 -98.97555 39017 ft 532 kts 106°
2026-05-09 15:04 50.74121 -98.86605 39018 ft 532 kts 106°
2026-05-09 15:06 50.63758 -98.42956 39001 ft 532 kts 106°
2026-05-09 15:06 50.61137 -98.32052 38997 ft 532 kts 107°
2026-05-09 15:07 50.58507 -98.21163 38985 ft 533 kts 107°
2026-05-09 15:07 50.55860 -98.10259 38993 ft 533 kts 107°
2026-05-09 15:08 50.53202 -97.99369 38984 ft 533 kts 107°
2026-05-09 15:08 50.49199 -97.83062 38988 ft 533 kts 107°
2026-05-09 15:10 50.38413 -97.39733 38986 ft 533 kts 107°
2026-05-09 15:11 50.35704 -97.28936 38952 ft 533 kts 108°
2026-05-09 15:11 50.32981 -97.18160 38949 ft 532 kts 108°
2026-05-09 15:12 50.30241 -97.07386 38953 ft 532 kts 108°
2026-05-09 15:12 50.27493 -96.96632 38945 ft 532 kts 108°
2026-05-09 15:13 50.24734 -96.85889 38960 ft 532 kts 108°
2026-05-09 15:13 50.21969 -96.75173 38939 ft 532 kts 108°
2026-05-09 15:14 50.19191 -96.64455 38950 ft 533 kts 108°
2026-05-09 15:14 50.16402 -96.53745 38950 ft 533 kts 108°
2026-05-09 15:15 50.13602 -96.43047 38944 ft 533 kts 109°
2026-05-09 15:15 50.10789 -96.32370 38949 ft 532 kts 109°
2026-05-09 15:16 50.07959 -96.21712 38936 ft 532 kts 109°
2026-05-09 15:16 50.05133 -96.11094 38936 ft 532 kts 109°
2026-05-09 15:17 50.02316 -96.00451 38926 ft 532 kts 109°
2026-05-09 15:17 49.99490 -95.89808 38943 ft 533 kts 109°
2026-05-09 15:18 49.96644 -95.79208 38919 ft 531 kts 109°
2026-05-09 15:18 49.93788 -95.68642 38920 ft 531 kts 109°
2026-05-09 15:19 49.90924 -95.58097 38911 ft 531 kts 109°
2026-05-09 15:19 49.88047 -95.47547 38911 ft 531 kts 109°
2026-05-09 15:20 49.83743 -95.31849 38897 ft 529 kts 110°
2026-05-09 15:21 49.80856 -95.21373 38892 ft 529 kts 110°
2026-05-09 15:21 49.77954 -95.10892 38892 ft 530 kts 110°
2026-05-09 15:22 49.75040 -95.00420 38889 ft 530 kts 110°
2026-05-09 15:22 49.72118 -94.89966 38889 ft 529 kts 110°
2026-05-09 15:23 49.69193 -94.79544 38879 ft 528 kts 110°
2026-05-09 15:23 49.66257 -94.69132 38879 ft 528 kts 110°
2026-05-09 15:24 49.63316 -94.58746 38853 ft 529 kts 110°
2026-05-09 15:24 49.60361 -94.48352 38861 ft 530 kts 111°
2026-05-09 15:25 49.57393 -94.37963 38846 ft 529 kts 111°
2026-05-09 15:25 49.54420 -94.27600 38854 ft 529 kts 111°
2026-05-09 15:26 49.49944 -94.12082 38860 ft 529 kts 111°
2026-05-09 15:26 49.46442 -94.02145 38857 ft 532 kts 123°
2026-05-09 15:27 49.42036 -93.93009 38848 ft 532 kts 126°
2026-05-09 15:27 49.37489 -93.84056 38840 ft 532 kts 127°
2026-05-09 15:28 49.32926 -93.75123 38840 ft 532 kts 126°
2026-05-09 15:28 49.28367 -93.66174 38837 ft 532 kts 126°
2026-05-09 15:29 49.23814 -93.57239 38826 ft 532 kts 126°
2026-05-09 15:29 49.19820 -93.47782 38835 ft 527 kts 110°
2026-05-09 15:30 49.17317 -93.37302 38831 ft 525 kts 105°
2026-05-09 15:30 49.15079 -93.26682 38832 ft 526 kts 104°
2026-05-09 15:31 49.12850 -93.16038 38826 ft 526 kts 105°
2026-05-09 15:31 49.10585 -93.05424 38831 ft 525 kts 105°
2026-05-09 15:32 49.08301 -92.94867 38821 ft 523 kts 105°
2026-05-09 15:32 49.06013 -92.84366 38820 ft 522 kts 106°
2026-05-09 15:33 49.03711 -92.73866 38806 ft 522 kts 106°
2026-05-09 15:33 49.01409 -92.63422 38821 ft 524 kts 106°
2026-05-09 15:34 48.99082 -92.52910 38804 ft 523 kts 107°
2026-05-09 15:34 48.96752 -92.42418 38798 ft 523 kts 107°
2026-05-09 15:35 48.94416 -92.31947 38799 ft 523 kts 107°
2026-05-09 15:35 48.92069 -92.21479 38793 ft 523 kts 107°
2026-05-09 15:36 48.89713 -92.11024 38799 ft 522 kts 107°
2026-05-09 15:36 48.87353 -92.00600 38787 ft 522 kts 107°
2026-05-09 15:37 48.84985 -91.90193 38778 ft 522 kts 107°
2026-05-09 15:37 48.82606 -91.79791 38780 ft 522 kts 107°
2026-05-09 15:38 48.80214 -91.69382 38773 ft 521 kts 107°
2026-05-09 15:38 48.77823 -91.59029 38766 ft 520 kts 107°
2026-05-09 15:39 48.75425 -91.48691 38766 ft 520 kts 108°
2026-05-09 15:39 48.73019 -91.38371 38757 ft 520 kts 108°
2026-05-09 15:40 48.70603 -91.28058 38753 ft 520 kts 108°
2026-05-09 15:40 48.68180 -91.17765 38759 ft 518 kts 108°
2026-05-09 15:41 48.65754 -91.07505 38761 ft 518 kts 108°
2026-05-09 15:41 48.63316 -90.97244 38742 ft 518 kts 108°
2026-05-09 15:42 48.60871 -90.86993 38738 ft 519 kts 107°
2026-05-09 15:42 48.58448 -90.76713 38727 ft 519 kts 107°
2026-05-09 15:43 48.55999 -90.66455 38716 ft 519 kts 108°
2026-05-09 15:43 48.53498 -90.56231 38715 ft 519 kts 109°
2026-05-09 15:44 48.50994 -90.46018 38706 ft 519 kts 109°
2026-05-09 15:44 48.48509 -90.35872 38713 ft 520 kts 109°
2026-05-09 15:45 48.46001 -90.25655 38703 ft 520 kts 109°
2026-05-09 15:45 48.43482 -90.15444 38678 ft 520 kts 109°
2026-05-09 15:46 48.41366 -90.06904 38699 ft 520 kts 109°
2026-05-09 15:46 48.38825 -89.96691 38676 ft 521 kts 109°
2026-05-09 15:47 48.36287 -89.86530 38679 ft 517 kts 109°
2026-05-09 15:47 48.33751 -89.76423 38676 ft 516 kts 109°
2026-05-09 15:48 48.31223 -89.66395 38674 ft 516 kts 109°
2026-05-09 15:48 48.28656 -89.56254 38670 ft 516 kts 109°
2026-05-09 15:49 48.26093 -89.46184 38667 ft 516 kts 109°
2026-05-09 15:49 48.23083 -89.36380 38680 ft 517 kts 115°
2026-05-09 15:50 48.19934 -89.26702 38659 ft 516 kts 115°
2026-05-09 15:50 48.16764 -89.17079 38658 ft 515 kts 115°
2026-05-09 15:51 48.13611 -89.07533 38653 ft 516 kts 115°
2026-05-09 15:51 48.10781 -88.98979 38644 ft 517 kts 116°
2026-05-09 15:52 48.06000 -88.84579 38637 ft 517 kts 116°
2026-05-09 15:53 48.02794 -88.74967 38638 ft 517 kts 116°
2026-05-09 15:53 47.99556 -88.65300 38650 ft 518 kts 116°
2026-05-09 15:54 47.96369 -88.55819 38652 ft 519 kts 116°
2026-05-09 15:54 47.93362 -88.46903 38653 ft 519 kts 116°
2026-05-09 15:55 47.90888 -88.39594 38657 ft 519 kts 116°
2026-05-09 15:55 47.87832 -88.30592 38674 ft 519 kts 116°
2026-05-09 15:56 47.86321 -88.26150 38668 ft 519 kts 116°
2026-05-09 15:56 47.84918 -88.22024 38653 ft 519 kts 117°
2026-05-09 15:57 47.83167 -88.16963 38671 ft 518 kts 116°
2026-05-09 15:57 47.81388 -88.11576 38644 ft 518 kts 115°
2026-05-09 15:58 47.78118 -88.01999 38649 ft 519 kts 117°
2026-05-09 15:58 47.74788 -87.92449 38638 ft 521 kts 117°
2026-05-09 15:59 47.71467 -87.82904 38629 ft 520 kts 116°
2026-05-09 15:59 47.68154 -87.73359 38613 ft 519 kts 116°
2026-05-09 16:00 47.64845 -87.63840 38619 ft 519 kts 116°
2026-05-09 16:00 47.61517 -87.54310 38605 ft 520 kts 117°
2026-05-09 16:01 47.58448 -87.45563 38615 ft 520 kts 117°
2026-05-09 16:01 47.55883 -87.38273 38597 ft 519 kts 117°
2026-05-09 16:02 47.53323 -87.31019 38613 ft 520 kts 117°
2026-05-09 16:02 47.49276 -87.19588 38620 ft 520 kts 117°
2026-05-09 16:03 47.45910 -87.10120 38620 ft 520 kts 117°
2026-05-09 16:03 47.42536 -87.00664 38616 ft 520 kts 117°
2026-05-09 16:04 47.40795 -86.95797 38627 ft 520 kts 117°
2026-05-09 16:04 47.37421 -86.86390 38626 ft 519 kts 117°
2026-05-09 16:05 47.34031 -86.76975 38604 ft 519 kts 117°
2026-05-09 16:05 47.30635 -86.67575 38618 ft 520 kts 117°
2026-05-09 16:06 47.27278 -86.58312 38613 ft 520 kts 118°
2026-05-09 16:06 47.23959 -86.49189 38611 ft 520 kts 118°
2026-05-09 16:07 47.20821 -86.40593 38615 ft 520 kts 118°
2026-05-09 16:07 47.17867 -86.32525 38609 ft 520 kts 118°
2026-05-09 16:08 47.15188 -86.25228 38612 ft 520 kts 118°
2026-05-09 16:08 47.12485 -86.17910 38612 ft 519 kts 118°
2026-05-09 16:09 47.09845 -86.10804 38604 ft 518 kts 118°
2026-05-09 16:09 47.06709 -86.02370 38609 ft 519 kts 118°
2026-05-09 16:10 47.03251 -85.93070 38611 ft 519 kts 118°
2026-05-09 16:10 46.99876 -85.84016 38615 ft 519 kts 118°
2026-05-09 16:11 46.96473 -85.74916 38610 ft 518 kts 119°
2026-05-09 16:11 46.93007 -85.65679 38610 ft 518 kts 119°
2026-05-09 16:12 46.89533 -85.56456 38607 ft 518 kts 119°
2026-05-09 16:12 46.86048 -85.47249 38599 ft 519 kts 119°
2026-05-09 16:13 46.82549 -85.38032 38601 ft 519 kts 119°
2026-05-09 16:13 46.79041 -85.28819 38599 ft 519 kts 119°
2026-05-09 16:14 46.75525 -85.19611 38595 ft 519 kts 119°
2026-05-09 16:14 46.72004 -85.10420 38600 ft 519 kts 120°
2026-05-09 16:15 46.68481 -85.01253 38584 ft 518 kts 120°
2026-05-09 16:15 46.64952 -84.92098 38581 ft 518 kts 119°
2026-05-09 16:16 46.61435 -84.82945 38575 ft 518 kts 119°
2026-05-09 16:16 46.57903 -84.73810 38570 ft 518 kts 120°
2026-05-09 16:17 46.54352 -84.64686 38562 ft 518 kts 120°
2026-05-09 16:17 46.50797 -84.55595 38563 ft 518 kts 120°
2026-05-09 16:18 46.47231 -84.46505 38561 ft 518 kts 120°
2026-05-09 16:18 46.43662 -84.37433 38562 ft 518 kts 120°
2026-05-09 16:19 46.39734 -84.28692 38549 ft 518 kts 128°
2026-05-09 16:19 46.35288 -84.20508 38545 ft 517 kts 130°
2026-05-09 16:20 46.30759 -84.12431 38550 ft 517 kts 130°
2026-05-09 16:20 46.26224 -84.04369 38552 ft 517 kts 130°
2026-05-09 16:21 46.21698 -83.96313 38553 ft 517 kts 130°
2026-05-09 16:21 46.17165 -83.88252 38553 ft 517 kts 130°
2026-05-09 16:22 46.12626 -83.80202 38553 ft 517 kts 130°
2026-05-09 16:22 46.08073 -83.72174 38552 ft 517 kts 131°
2026-05-09 16:23 46.03508 -83.64156 38557 ft 517 kts 131°
2026-05-09 16:23 45.98950 -83.56153 38556 ft 516 kts 131°
2026-05-09 16:24 45.94427 -83.48225 38561 ft 516 kts 131°
2026-05-09 16:24 45.89834 -83.40196 38581 ft 516 kts 131°
2026-05-09 16:25 45.86039 -83.33574 38581 ft 516 kts 131°
2026-05-09 16:25 45.80735 -83.24346 38584 ft 516 kts 131°
2026-05-09 16:26 45.76163 -83.16422 38576 ft 515 kts 131°
2026-05-09 16:26 45.71587 -83.08517 38587 ft 516 kts 131°
2026-05-09 16:27 45.67001 -83.00616 38587 ft 516 kts 131°
2026-05-09 16:27 45.62410 -82.92727 38579 ft 516 kts 132°
2026-05-09 16:28 45.57823 -82.84866 38581 ft 514 kts 132°
2026-05-09 16:28 45.53983 -82.78303 38570 ft 514 kts 132°
2026-05-09 16:29 45.49423 -82.70529 38578 ft 514 kts 132°
2026-05-09 16:29 45.44826 -82.62705 38587 ft 514 kts 132°
2026-05-09 16:30 45.40232 -82.54910 38589 ft 514 kts 133°
2026-05-09 16:30 45.35634 -82.47136 38595 ft 513 kts 133°
2026-05-09 16:31 45.31038 -82.39388 38582 ft 513 kts 133°
2026-05-09 16:31 45.26435 -82.31650 38598 ft 513 kts 133°
2026-05-09 16:32 45.21822 -82.23917 38613 ft 513 kts 133°
2026-05-09 16:32 45.17206 -82.16199 38617 ft 514 kts 133°
2026-05-09 16:33 45.12584 -82.08493 38614 ft 514 kts 133°
2026-05-09 16:33 45.07946 -82.00781 38613 ft 514 kts 133°
2026-05-09 16:34 45.03309 -81.93091 38622 ft 514 kts 133°
2026-05-09 16:34 44.98662 -81.85407 38640 ft 514 kts 133°
2026-05-09 16:35 44.94021 -81.77752 38636 ft 514 kts 133°
2026-05-09 16:35 44.89365 -81.70093 38658 ft 514 kts 133°
2026-05-09 16:36 44.80039 -81.54818 38673 ft 514 kts 133°
2026-05-09 16:37 44.75368 -81.47197 38683 ft 514 kts 133°
2026-05-09 16:37 44.70693 -81.39590 38677 ft 514 kts 134°
2026-05-09 16:38 44.66018 -81.32004 38653 ft 513 kts 134°
2026-05-09 16:38 44.61340 -81.24434 38675 ft 513 kts 134°
2026-05-09 16:39 44.56671 -81.16896 38680 ft 511 kts 134°
2026-05-09 16:39 44.52004 -81.09384 38689 ft 511 kts 134°
2026-05-09 16:40 44.47330 -81.01881 38704 ft 511 kts 134°
2026-05-09 16:42 44.28608 -80.72022 38727 ft 510 kts 135°
2026-05-09 16:42 44.23922 -80.64599 38727 ft 509 kts 135°
2026-05-09 16:43 44.19233 -80.57190 38724 ft 510 kts 135°
2026-05-09 16:43 44.14538 -80.49790 38724 ft 511 kts 135°
2026-05-09 16:44 44.09814 -80.42365 38727 ft 513 kts 135°
2026-05-09 16:44 44.05082 -80.34946 38734 ft 513 kts 135°
2026-05-09 16:45 44.00345 -80.27536 38733 ft 513 kts 135°
2026-05-09 16:45 43.95592 -80.20123 38747 ft 515 kts 135°
2026-05-09 16:46 43.90823 -80.12704 38750 ft 516 kts 135°
2026-05-09 16:46 43.86036 -80.05278 38749 ft 517 kts 135°
2026-05-09 16:47 43.81245 -79.97862 38755 ft 517 kts 135°
2026-05-09 16:47 43.76447 -79.90456 38745 ft 517 kts 136°
2026-05-09 16:48 43.71635 -79.83047 38766 ft 517 kts 136°
2026-05-09 16:48 43.66827 -79.75664 38765 ft 517 kts 136°
2026-05-09 16:49 43.62012 -79.68289 38768 ft 517 kts 136°
2026-05-09 16:50 43.54781 -79.57250 38754 ft 516 kts 136°
2026-05-09 16:50 43.49955 -79.49907 38777 ft 517 kts 136°
2026-05-09 16:51 43.45154 -79.42620 38776 ft 517 kts 136°
2026-05-09 16:51 43.40320 -79.35299 38781 ft 516 kts 136°
2026-05-09 16:52 43.35485 -79.27996 38783 ft 516 kts 136°
2026-05-09 16:52 43.30651 -79.20716 38775 ft 516 kts 136°
2026-05-09 16:53 43.25809 -79.13440 38785 ft 516 kts 136°
2026-05-09 16:53 43.20959 -79.06173 38785 ft 517 kts 136°
2026-05-09 16:54 43.16104 -78.98915 38791 ft 516 kts 136°
2026-05-09 16:54 43.11253 -78.91682 38794 ft 515 kts 136°
2026-05-09 16:55 43.06404 -78.84470 38802 ft 516 kts 136°
2026-05-09 16:55 43.01545 -78.77263 38786 ft 516 kts 136°
2026-05-09 16:56 42.96675 -78.70055 38807 ft 516 kts 136°
2026-05-09 16:56 42.91566 -78.63262 38809 ft 509 kts 146°
2026-05-09 16:57 42.85982 -78.57375 38800 ft 506 kts 148°
2026-05-09 16:57 42.80323 -78.51660 38801 ft 506 kts 148°
2026-05-09 16:58 42.74653 -78.45963 38802 ft 507 kts 148°
2026-05-09 16:58 42.68986 -78.40253 38802 ft 507 kts 148°
2026-05-09 16:59 42.63321 -78.34543 38799 ft 507 kts 148°
2026-05-09 16:59 42.57706 -78.28894 38811 ft 507 kts 148°
2026-05-09 17:00 42.52029 -78.23198 38826 ft 507 kts 148°
2026-05-09 17:00 42.46349 -78.17515 38830 ft 507 kts 148°
2026-05-09 17:01 42.40667 -78.11841 38834 ft 507 kts 148°
2026-05-09 17:01 42.34995 -78.06165 38833 ft 508 kts 148°
2026-05-09 17:02 42.29308 -78.00498 38844 ft 508 kts 148°
2026-05-09 17:02 42.23617 -77.94851 38841 ft 508 kts 148°
2026-05-09 17:03 42.17930 -77.89223 38852 ft 506 kts 148°
2026-05-09 17:05 41.95197 -77.66855 38854 ft 506 kts 149°
2026-05-09 17:05 41.89512 -77.61292 38859 ft 506 kts 149°
2026-05-09 17:06 41.83822 -77.55734 38864 ft 505 kts 149°
2026-05-09 17:06 41.78186 -77.50237 38864 ft 504 kts 149°
2026-05-09 17:07 41.72509 -77.44716 38870 ft 504 kts 149°
2026-05-09 17:07 41.67487 -77.38030 38864 ft 516 kts 132°
2026-05-09 17:08 41.63140 -77.30342 38880 ft 520 kts 129°
2026-05-09 17:08 41.56773 -77.18597 38883 ft 520 kts 130°
2026-05-09 17:09 41.52499 -77.10799 38892 ft 520 kts 130°
2026-05-09 17:09 41.48206 -77.03037 38887 ft 519 kts 130°
2026-05-09 17:10 41.43911 -76.95301 38877 ft 519 kts 130°
2026-05-09 17:10 41.40329 -76.88866 38890 ft 521 kts 130°
2026-05-09 17:11 41.36124 -76.80998 38900 ft 525 kts 123°
2026-05-09 17:11 41.34574 -76.76579 38910 ft 529 kts 111°
2026-05-09 17:11 41.33706 -76.71815 38906 ft 532 kts 97°
2026-05-09 17:12 41.33039 -76.61989 38912 ft 536 kts 94°
2026-05-09 17:12 41.32472 -76.52090 38900 ft 537 kts 94°
2026-05-09 17:13 41.31896 -76.42197 38907 ft 537 kts 95°
2026-05-09 17:13 41.31311 -76.32299 38906 ft 536 kts 95°
2026-05-09 17:14 41.30716 -76.22415 38907 ft 536 kts 95°
2026-05-09 17:14 41.30114 -76.12526 38911 ft 537 kts 95°
2026-05-09 17:15 41.29501 -76.02620 38923 ft 537 kts 95°
2026-05-09 17:15 41.28885 -75.92790 38913 ft 537 kts 95°
2026-05-09 17:17 41.22717 -75.54973 38934 ft 528 kts 117°
2026-05-09 17:18 41.19715 -75.46078 38933 ft 528 kts 117°
2026-05-09 17:18 41.16717 -75.37193 38938 ft 528 kts 117°
2026-05-09 17:19 41.13710 -75.28303 38940 ft 528 kts 118°
2026-05-09 17:19 41.10694 -75.19429 38807 ft 524 kts 118°
2026-05-09 17:20 41.09205 -75.15040 38444 ft 518 kts 118°
2026-05-09 17:20 41.07731 -75.10698 37709 ft 519 kts 118°
2026-05-09 17:20 41.06237 -75.06316 36786 ft 521 kts 119°
2026-05-09 17:20 41.04751 -75.01957 35540 ft 520 kts 119°
2026-05-09 17:21 41.03263 -74.97591 34234 ft 521 kts 119°
2026-05-09 17:21 41.01771 -74.93220 32776 ft 521 kts 120°
2026-05-09 17:21 41.00299 -74.88838 31393 ft 521 kts 118°
2026-05-09 17:21 40.99294 -74.84216 30202 ft 523 kts 105°
2026-05-09 17:22 40.98704 -74.79489 28896 ft 518 kts 103°
2026-05-09 17:22 40.98178 -74.74814 27720 ft 508 kts 103°
2026-05-09 17:22 40.97661 -74.70245 26666 ft 497 kts 103°
2026-05-09 17:22 40.97149 -74.65789 25621 ft 486 kts 103°
2026-05-09 17:23 40.96640 -74.61419 24692 ft 474 kts 103°
2026-05-09 17:23 40.96146 -74.57194 24057 ft 458 kts 103°
2026-05-09 17:23 40.95651 -74.53027 23465 ft 456 kts 103°
2026-05-09 17:23 40.95159 -74.48903 22822 ft 452 kts 103°
2026-05-09 17:25 40.92761 -74.28926 20232 ft 424 kts 103°
2026-05-09 17:25 40.92313 -74.25140 20112 ft 411 kts 103°
2026-05-09 17:25 40.91874 -74.21465 19969 ft 398 kts 103°
2026-05-09 17:25 40.91444 -74.17900 19760 ft 388 kts 103°
2026-05-09 17:26 40.91011 -74.14398 19382 ft 384 kts 104°
2026-05-09 17:26 40.90307 -74.11060 19033 ft 367 kts 122°
2026-05-09 17:26 40.89024 -74.08232 18944 ft 355 kts 132°
2026-05-09 17:26 40.87398 -74.05748 18930 ft 364 kts 146°
2026-05-09 17:27 40.85260 -74.03971 18924 ft 363 kts 165°
2026-05-09 17:27 40.82846 -74.03112 18933 ft 357 kts 178°
2026-05-09 17:27 40.80420 -74.02668 18928 ft 357 kts 178°
2026-05-09 17:27 40.77946 -74.01930 18952 ft 364 kts 168°
2026-05-09 17:28 40.75666 -74.00476 18955 ft 377 kts 152°
2026-05-09 17:28 40.73698 -73.98029 18959 ft 391 kts 134°
2026-05-09 17:28 40.72050 -73.95156 18940 ft 395 kts 131°
2026-05-09 17:28 40.70450 -73.92275 18956 ft 396 kts 132°
2026-05-09 17:29 40.68806 -73.89363 18956 ft 395 kts 133°
2026-05-09 17:29 40.67126 -73.86431 18943 ft 395 kts 133°
2026-05-09 17:29 40.65523 -73.83553 18940 ft 397 kts 129°
2026-05-09 17:29 40.63999 -73.80507 18958 ft 398 kts 128°
2026-05-09 17:30 40.62466 -73.77413 18957 ft 398 kts 129°
2026-05-09 17:30 40.60963 -73.74409 18950 ft 398 kts 128°
2026-05-09 17:30 40.59430 -73.71376 18953 ft 398 kts 129°
2026-05-09 17:30 40.57888 -73.68341 18954 ft 398 kts 129°
2026-05-09 17:31 40.56348 -73.65321 18954 ft 398 kts 129°
2026-05-09 17:31 40.55093 -73.62121 18954 ft 392 kts 110°
2026-05-09 17:32 40.59264 -73.51079 16356 ft 361 kts 33°
2026-05-09 17:32 40.61135 -73.48752 15348 ft 363 kts 37°
2026-05-09 17:32 40.63300 -73.47233 14557 ft 347 kts 11°
2026-05-09 17:33 40.65621 -73.46729 13654 ft 336 kts 360°
2026-05-09 17:33 40.67904 -73.45872 12621 ft 344 kts 16°
2026-05-09 17:33 40.70116 -73.44712 11810 ft 340 kts 17°
2026-05-09 17:33 40.72265 -73.43565 11028 ft 336 kts 19°
2026-05-09 17:34 40.74443 -73.42538 10240 ft 329 kts 12°
2026-05-09 17:35 40.87008 -73.37250 5649 ft 297 kts 351°
2026-05-09 17:35 40.88932 -73.37951 4922 ft 280 kts 324°
2026-05-09 17:36 40.90326 -73.39586 4153 ft 261 kts 296°
2026-05-09 17:36 40.90889 -73.41750 3426 ft 244 kts 269°
2026-05-09 17:36 40.90661 -73.43915 2662 ft 236 kts 246°
2026-05-09 17:36 40.89821 -73.45754 2071 ft 235 kts 232°
2026-05-09 17:37 40.88819 -73.47510 1819 ft 241 kts 232°
2026-05-09 17:37 40.87989 -73.49455 1797 ft 243 kts 241°
2026-05-09 17:37 40.87230 -73.51441 1792 ft 242 kts 240°
2026-05-09 17:37 40.86474 -73.53437 1790 ft 243 kts 241°
2026-05-09 17:38 40.85719 -73.55429 1789 ft 243 kts 241°
2026-05-09 17:38 40.84962 -73.57431 1789 ft 243 kts 241°
2026-05-09 17:38 40.84149 -73.59343 1788 ft 232 kts 233°
2026-05-09 17:39 40.81894 -73.61843 1796 ft 198 kts 210°
2026-05-09 17:39 40.80735 -73.62729 1790 ft 186 kts 211°
2026-05-09 17:39 40.79679 -73.63546 1797 ft 165 kts 211°
2026-05-09 17:39 40.78756 -73.64270 1788 ft 145 kts 212°
2026-05-09 17:40 40.77944 -73.64915 1781 ft 131 kts 214°
2026-05-09 17:40 40.77166 -73.65540 1801 ft 135 kts 212°
2026-05-09 17:40 40.76323 -73.66213 1808 ft 146 kts 212°
2026-05-09 17:40 40.75441 -73.66912 1801 ft 148 kts 211°
2026-05-09 17:41 40.74557 -73.67605 1801 ft 149 kts 211°
2026-05-09 17:41 40.73663 -73.68307 1798 ft 150 kts 211°
2026-05-09 17:41 40.72769 -73.69009 1799 ft 149 kts 212°
2026-05-09 17:41 40.71871 -73.69715 1734 ft 151 kts 211°
2026-05-09 17:42 40.70971 -73.70425 1533 ft 151 kts 211°
2026-05-09 17:42 40.70108 -73.71104 1328 ft 149 kts 211°
2026-05-09 17:42 40.69459 -73.71613 1173 ft 148 kts 210°
2026-05-09 17:42 40.68588 -73.72297 972 ft 146 kts 210°
2026-05-09 17:43 40.67800 -73.72918 793 ft 146 kts 210°
2026-05-09 17:43 40.66992 -73.73552 627 ft 147 kts 209°
2026-05-09 17:43 40.66139 -73.74223 420 ft 138 kts 208°
2026-05-09 17:43 40.65340 -73.74859 230 ft 129 kts 210°
2026-05-09 17:44 40.64592 -73.75434 86 ft 120 kts 208°
2026-05-09 17:44 40.63904 -73.75970 28 ft 102 kts 211°
2026-05-09 17:44 40.63536 -73.76260 29 ft 30 kts 211°
2026-05-09 17:44 40.63361 -73.76412 26 ft 31 kts 223°
2026-05-09 17:45 40.63249 -73.76616 31 ft 31 kts 247°
2026-05-09 17:45 40.63297 -73.76850 27 ft 33 kts 300°
2026-05-09 17:45 40.63420 -73.77123 30 ft 28 kts 302°
2026-05-09 17:45 40.63496 -73.77289 29 ft 27 kts 301°
2026-05-09 17:46 40.63583 -73.77477 29 ft 28 kts 301°
2026-05-09 17:46 40.63674 -73.77641 31 ft 11 kts 329°
2026-05-09 17:46 40.63745 -73.77667 27 ft 12 kts 337°
2026-05-09 17:46 40.63806 -73.77718 29 ft 12 kts 323°
2026-05-09 17:47 40.63880 -73.77782 29 ft 11 kts 327°
2026-05-09 17:47 40.63926 -73.77829 29 ft 5 kts 300°
2026-05-09 17:47 40.63921 -73.77862 29 ft 4 kts 241°
2026-05-09 17:47 40.63884 -73.77910 29 ft 11 kts 220°
2026-05-09 17:48 40.63851 -73.77988 29 ft 10 kts 260°
2026-05-09 17:48 40.63846 -73.78034 29 ft 3 kts 262°
2026-05-09 17:48 40.63845 -73.78042 29 ft 0 kts 262°